ROMMA est une association bénévole à but non lucratif. Votre soutien est indispensable : ADHERER à ROMMA ou FAIRE un DON

Chambon - (38, Isère)

Oisans (2460 m)   Longitude: 06° 10' 42" E   Latitude: 45° 01' 32" N Station partenaire n°803
 

Détail journalier du     <<     >>

Température Humidité Vent Dir Rafale Dir. rafale Neige 1 Neige 2
Heure (°C) (%) (km/h) (km/h) (cm) (cm)
01:00 8.35815SSO40SSO03
02:00 8.85731SSO59SO03
03:00 8.55532SO53SO03
04:00 8.15924SO49SO03
05:00 8.35815SSO42SSO03
06:00 8.55523SSO46SO03
07:00 9.35431SSO58SSO03
08:00 8.95732SSO56SSO03
09:00 9.35739SSO59SSO03
10:00 8.76129SSO51SSO03
11:00 9.45729S55S03
12:00 9.75631S54SSO03
13:00 10.25431SSO56SSO03
14:00 10.75137SSO66SSO03
15:00 11.84735SSO64SSO03
16:00 12.54228SSO54SSO03
17:00 12.73925SSO56SSO02
18:00 11.73938SSO71SSO02
19:00 10.54149SSO73SSO02
20:00 10.23943SSO70SSO02
21:00 9.94031SSO57SSO03
22:00 9.44021SSO41SSO03
23:00 9.14014SSO31SSO03
minuit 9.14013SSO29SSO03

Graphique du 13-10-2019

 

Serveur OMMA